STARLINK-3818 (52340 NORAD) Tracking and Keplerian Element Data
This shows tracking and keplerian element data for the satellite.
Feedback or suggestion? Click here.
Element | Value |
Catalog | 52340 |
Name | STARLINK-3818 |
Epoch Orbit | 130 |
Epoch Day | 167.08334491 |
Epoch Year | 2022 |
RAAN | 202.9335 |
Inclination | 53.2173 |
Eccentricity | 0.000186 |
Argument of Perigee | 33.4874 |
Mean Anonmoly | 114.0225 |
Mean Motion | 15.62220435 |
Decay Rate | -0.00714623 |
L1 | 1 52340U 22045K 22167.08334491 -.00714623 00000+0 -86898-2 0 9992 |
L2 | 2 52340 53.2173 202.9335 0001860 33.4874 114.0225 15.62220435 1304 |
Live tracking and technical data element details for STARLINK-3818 (NORAD 52340). STARLINK-3818 can be tracked NOW for your location showing map with azimuth and elevation plus other details from your city location.
Track the satellite on the map from your city or location and see movement details for azimuth, elevation, latitude, longitude, range, height, and movement on the map or in text.
IsCatalogInMostPopularTable: catalog: 52340, numindb: 1
Update: records affected: 1
GetName: 52340 STARLINK-3818
Hit Count: updated at: Sat, 25 Jun 2022 03:59:44 GMT